Погода в Аксарае

Турция     38°22′16″N   34°01′26″E
темп.,
°C
ветер,
м/с
пор.,
м/с
влажн.,
%
обл.,
%
осадки,
мм/ч
давл.,
гПа
погр.,
м
9 мая, вс
вс900:00+17ссв225599 0.0 101123
03:00+15ссз006210 0.0 101011
06:00+14з45735 0.0 101389
09:00+17сз666245 0.0 10151054
12:00+18ссз8752100 0.1 10161563
15:00+18св25404 0.1 10161801
18:00+17ссв108290 0.0 10171252
21:00+11всв711580 0.0 1020696
10 мая, пн
пн1000:00+9всв611560 0.0 1021448
03:00+7св510630 0.0 1021291
06:00+5св610680 0.0 1022310
09:00+10св99400 0.0 1021729
12:00+14ссв87210 0.0 10191131
15:00+17ссв87190 0.0 10161320
18:00+16св88240 0.0 10151169
21:00+11св611410 0.0 1017330
11 мая, вт
вт1100:00+8всв49520 0.0 1017212
03:00+7св35560 0.0 101785
06:00+6св34580 0.0 101760
09:00+13ссв33350 0.0 1015553
12:00+18с33250 0.0 10141260
15:00+20ссз32210 0.0 10121541
18:00+20сз43220 0.0 10101194
21:00+13ссв11430 0.0 101210
12 мая, ср
ср1200:00+13в22390 0.0 101211
03:00+12юв22395 0.0 101111
06:00+11юв11415 0.0 101110
09:00+20зюз12235 0.0 1010583
12:00+24юз45170 0.0 10092070
15:00+27юз46135 0.0 10082919
18:00+26з55165 0.0 10072073
21:00+20ю56262 0.0 100972
13 мая, чт
чт1300:00+19ю56305 0.0 101072
03:00+17ю443498 0.0 101044
06:00+15ююв22425 0.0 101112
09:00+22юз23240 0.0 1011733
12:00+26юз44190 0.0 10102362
15:00+28юз54140 0.0 10092845
18:00+28юз34110 0.0 10092571
21:00+20св11230 0.0 101011